Viroqua, WI

8:10 AM CDT on July 22, 2018 (GMT -0500)
Viroqua

Weather History for KY51 - January, 2018

Change the Weather History Date:

Friday, January 12, 2018

  Actual Average (KCMY) Record (KCMY)
Temperature  
Mean Temperature 4 °F -  
Max Temperature 10 °F 21 °F 48 °F (2006)
Min Temperature -2 °F 1 °F -32 °F (1979)
Degree Days  
Heating Degree Days 61    
Moisture  
Dew Point 0 °F    
Average Humidity 79    
Maximum Humidity 89    
Minimum Humidity 69    
Precipitation  
Precipitation 0.00 in - - ()
Sea Level Pressure  
Sea Level Pressure 30.30 in    
Wind  
Wind Speed 15 mph (NNW)    
Max Wind Speed 21 mph    
Max Gust Speed 28 mph    
Visibility 10 miles    
Events      
Averages and records for this station are not official NWS values.
T = Trace of Precipitation, MM = Missing Value Source: NWS Daily Summary

Daily Weather History Graph

Daily Weather History Graph

Search for Another Location

Airport or City:

Astronomy

Jan. 12, 2018 Rise Set
Actual Time 7:35 AM CST 4:49 PM CST
Civil Twilight 7:03 AM CST 5:21 PM CST
Nautical Twilight 6:27 AM CST 5:56 PM CST
Astronomical Twilight 5:53 AM CST 6:31 PM CST
Moon 3:38 AM CST (1/12) 1:49 PM CST (1/12)
Length of Visible Light 10h 18m
Length of Day
9h 14m
Waning Crescent, 16% of the Moon is Illuminated
Jan 12
Waning Crescent
Jan 16
New
Jan 24
First Quarter
Jan 31
Full
Feb 7
Last Quarter

Hourly Weather History & Observations

Time (CST) Temp. Windchill Dew Point Humidity Pressure Visibility Wind Dir Wind Speed Gust Speed Precip Events Conditions
12:15 AM 6.4 °F -13.3 °F 2.3 °F 83% 30.04 in 10.0 mi NNW 19.6 mph 24.2 mph N/A   Overcast
12:35 AM 6.3 °F -12.5 °F 2.3 °F 84% 30.06 in 10.0 mi NNW 17.3 mph 25.3 mph N/A   Overcast
12:55 AM 6.4 °F -12.3 °F 2.8 °F 85% 30.06 in 10.0 mi North 17.3 mph 24.2 mph N/A   Overcast
1:15 AM 6.6 °F -13.1 °F 3.0 °F 85% 30.06 in 10.0 mi NNW 19.6 mph 27.6 mph N/A   Overcast
1:35 AM 6.6 °F -13.1 °F 3.2 °F 86% 30.07 in 10.0 mi NNW 19.6 mph 26.5 mph N/A   Overcast
1:55 AM 6.8 °F -13.4 °F 3.6 °F 87% 30.09 in 10.0 mi NNW 20.7 mph 25.3 mph N/A   Overcast
2:15 AM 7.2 °F -11.9 °F 3.7 °F 86% 30.11 in 10.0 mi North 18.4 mph 23.0 mph N/A   Overcast
2:35 AM 7.2 °F -12.4 °F 3.9 °F 87% 30.12 in 10.0 mi NNW 19.6 mph 25.3 mph N/A   Overcast
2:55 AM 7.2 °F -8.9 °F 3.9 °F 87% 30.13 in 10.0 mi NNW 12.7 mph 25.3 mph N/A   Overcast
3:15 AM 6.8 °F -10.7 °F 3.7 °F 87% 30.13 in 10.0 mi North 15.0 mph 24.2 mph N/A   Overcast
3:35 AM 7.0 °F -12.6 °F 3.7 °F 87% 30.14 in 10.0 mi NNW 19.6 mph 26.5 mph N/A   Overcast
3:55 AM 6.8 °F -11.8 °F 3.4 °F 86% 30.14 in 10.0 mi NNW 17.3 mph 24.2 mph N/A   Overcast
4:15 AM 6.6 °F -12.1 °F 3.0 °F 85% 30.15 in 10.0 mi North 17.3 mph 24.2 mph N/A   Overcast
4:35 AM 6.3 °F -12.0 °F 2.8 °F 86% 30.16 in 10.0 mi North 16.1 mph - N/A   Overcast
4:55 AM 5.9 °F -11.8 °F 2.8 °F 87% 30.17 in 10.0 mi NNW 15.0 mph 19.6 mph N/A   Overcast
5:15 AM 5.7 °F -12.0 °F 2.5 °F 86% 30.17 in 10.0 mi NNW 15.0 mph - N/A   Overcast
5:35 AM 5.5 °F -13.5 °F 2.3 °F 86% 30.18 in 10.0 mi NNW 17.3 mph 21.9 mph N/A   Overcast
5:55 AM 5.0 °F -12.3 °F 1.9 °F 87% 30.18 in 10.0 mi North 13.8 mph - N/A   Overcast
6:15 AM 4.8 °F -10.2 °F 1.9 °F 88% 30.19 in 10.0 mi North 10.4 mph - N/A   Overcast
6:35 AM 4.1 °F -13.4 °F 1.2 °F 88% 30.19 in 10.0 mi NNW 13.8 mph 20.7 mph N/A   Overcast
6:55 AM 4.1 °F -13.4 °F 1.4 °F 89% 30.20 in 10.0 mi NNW 13.8 mph - N/A   Overcast
7:15 AM 4.1 °F -12.7 °F 1.4 °F 89% 30.22 in 10.0 mi NNW 12.7 mph 18.4 mph N/A   Overcast
7:35 AM 3.7 °F -14.6 °F 0.5 °F 86% 30.22 in 10.0 mi North 15.0 mph - N/A   Overcast
7:55 AM 3.2 °F -15.3 °F 0.1 °F 87% 30.23 in 10.0 mi North 15.0 mph - N/A   Overcast
8:15 AM 3.0 °F -13.3 °F -0.2 °F 86% 30.25 in 10.0 mi NNW 11.5 mph 18.4 mph N/A   Overcast
8:35 AM 3.0 °F -13.3 °F -0.2 °F 86% 30.26 in 10.0 mi North 11.5 mph 18.4 mph N/A   Overcast
8:55 AM 2.8 °F -17.0 °F -0.4 °F 86% 30.26 in 7.0 mi North 17.3 mph 24.2 mph N/A   Overcast
9:15 AM 2.8 °F -15.7 °F -0.6 °F 86% 30.26 in 10.0 mi North 15.0 mph 21.9 mph N/A   Overcast
9:35 AM 3.2 °F -12.2 °F -0.2 °F 86% 30.27 in 7.0 mi North 10.4 mph - N/A   Overcast
9:55 AM 4.1 °F -12.0 °F 0.5 °F 85% 30.29 in 10.0 mi North 11.5 mph 16.1 mph N/A   Overcast
10:15 AM 4.6 °F -10.4 °F 0.9 °F 84% 30.30 in 10.0 mi North 10.4 mph - N/A   Overcast
10:35 AM 5.7 °F -12.6 °F 1.6 °F 83% 30.30 in 10.0 mi North 16.1 mph 20.7 mph N/A   Mostly Cloudy
10:55 AM 5.7 °F -10.7 °F 1.2 °F 82% 30.30 in 10.0 mi North 12.7 mph - N/A   Scattered Clouds
11:15 AM 5.5 °F -12.9 °F 0.7 °F 80% 30.29 in 10.0 mi North 16.1 mph 21.9 mph N/A   Scattered Clouds
11:35 AM 6.1 °F -11.6 °F 1.2 °F 80% 30.29 in 10.0 mi North 15.0 mph 21.9 mph N/A   Scattered Clouds
11:55 AM 7.2 °F -8.9 °F 2.1 °F 80% 30.28 in 10.0 mi North 12.7 mph 21.9 mph N/A   Scattered Clouds
12:15 PM 7.9 °F -8.6 °F 2.5 °F 79% 30.27 in 10.0 mi North 13.8 mph 21.9 mph N/A   Clear
12:35 PM 8.6 °F -7.0 °F 2.5 °F 76% 30.27 in 10.0 mi North 12.7 mph - N/A   Clear
12:55 PM 9.1 °F -4.9 °F 2.8 °F 76% 30.27 in 10.0 mi North 10.4 mph - N/A   Clear
1:15 PM 9.5 °F -4.4 °F 2.3 °F 73% 30.28 in 10.0 mi North 10.4 mph - N/A   Clear
1:35 PM 9.9 °F -4.0 °F 2.5 °F 72% 30.28 in 10.0 mi NNW 10.4 mph - N/A   Clear
1:55 PM 10.2 °F -2.7 °F 2.3 °F 70% 30.29 in 10.0 mi North 9.2 mph 16.1 mph N/A   Clear
2:15 PM 10.2 °F -3.5 °F 2.1 °F 70% 30.29 in 10.0 mi North 10.4 mph - N/A   Clear
2:35 PM 10.2 °F -3.5 °F 1.9 °F 69% 30.30 in 10.0 mi North 10.4 mph - N/A   Clear
2:55 PM 10.2 °F -4.3 °F 2.3 °F 70% 30.32 in 10.0 mi NNW 11.5 mph - N/A   Clear
3:15 PM 10.0 °F -5.2 °F 1.9 °F 70% 30.34 in 10.0 mi NNW 12.7 mph - N/A   Clear
3:35 PM 9.5 °F -3.5 °F 1.4 °F 70% 30.36 in 10.0 mi NNW 9.2 mph - N/A   Clear
3:55 PM 9.5 °F -3.5 °F 1.6 °F 70% 30.37 in 10.0 mi NW 9.2 mph - N/A   Clear
4:15 PM 8.6 °F -6.3 °F 1.4 °F 73% 30.39 in 10.0 mi NW 11.5 mph - N/A   Clear
4:35 PM 7.5 °F -7.7 °F 0.7 °F 74% 30.40 in 10.0 mi NW 11.5 mph - N/A   Clear
4:55 PM 6.3 °F -9.2 °F -0.0 °F 75% 30.41 in 10.0 mi NW 11.5 mph - N/A   Clear
5:15 PM 5.5 °F -9.3 °F -0.6 °F 76% 30.42 in 10.0 mi NNW 10.4 mph - N/A   Clear
5:35 PM 3.9 °F -11.3 °F -1.3 °F 79% 30.43 in 10.0 mi NW 10.4 mph - N/A   Clear
5:55 PM 3.6 °F -14.8 °F -2.0 °F 78% 30.46 in 10.0 mi NW 15.0 mph - N/A   Clear
6:15 PM 2.8 °F -13.5 °F -2.9 °F 77% 30.46 in 10.0 mi NNW 11.5 mph - N/A   Clear
6:35 PM 2.3 °F -12.4 °F -3.5 °F 77% 30.47 in 10.0 mi NNW 9.2 mph - N/A   Clear
6:55 PM 2.1 °F -12.6 °F -3.8 °F 76% 30.47 in 10.0 mi NNW 9.2 mph - N/A   Clear
7:15 PM 1.9 °F -15.5 °F -4.7 °F 74% 30.48 in 10.0 mi NNW 12.7 mph - N/A   Clear
7:35 PM 1.4 °F -16.1 °F -5.3 °F 74% 30.48 in 10.0 mi NNW 12.7 mph 18.4 mph N/A   Clear
7:55 PM 1.2 °F -16.4 °F -5.8 °F 72% 30.48 in 10.0 mi NNW 12.7 mph 19.6 mph N/A   Clear
8:15 PM 1.2 °F -17.1 °F -6.3 °F 71% 30.48 in 10.0 mi NNW 13.8 mph 18.4 mph N/A   Clear
8:40 PM 0.5 °F -18.0 °F -6.7 °F 72% 30.48 in 10.0 mi NNW 13.8 mph - N/A   Clear
8:55 PM 0.5 °F -18.0 °F -7.4 °F 69% 30.49 in 10.0 mi NNW 13.8 mph 18.4 mph N/A   Clear
9:15 PM 0.3 °F -18.3 °F -7.6 °F 69% 30.49 in 10.0 mi NNW 13.8 mph - N/A   Clear
9:35 PM 0.1 °F -17.7 °F -7.8 °F 69% 30.50 in 10.0 mi NNW 12.7 mph 18.4 mph N/A   Clear
9:55 PM -0.4 °F -17.6 °F -7.6 °F 72% 30.50 in 10.0 mi NW 11.5 mph - N/A   Clear
10:15 PM -1.1 °F -18.5 °F -8.0 °F 73% 30.50 in 10.0 mi NNW 11.5 mph - N/A   Clear
10:35 PM -1.3 °F -18.7 °F -8.5 °F 72% 30.50 in 10.0 mi NNW 11.5 mph - N/A   Clear
10:55 PM -1.7 °F -20.8 °F -8.7 °F 72% 30.50 in 10.0 mi NNW 13.8 mph - N/A   Clear
11:15 PM -1.8 °F -21.7 °F -8.9 °F 72% 30.50 in 10.0 mi NNW 15.0 mph 19.6 mph N/A   Clear
11:35 PM -2.4 °F -21.7 °F -9.4 °F 72% 30.50 in 10.0 mi NNW 13.8 mph 20.7 mph N/A   Clear
11:55 PM -2.6 °F -20.3 °F -9.6 °F 72% 30.51 in 10.0 mi NNW 11.5 mph - N/A   Clear